Terminal Aerodrome Forecast
Issued by NWS

Home | Current Version | Previous Version | Graphics & Text | Print | Product List | Glossary On
Versions: 1 2 3 4 5 6 7 8 9 10 11 12 13 14 15 16 17
040
FTUS43 KOAX 281120
TAFCDR
TAF
KCDR 281120Z 2812/2912 02005KT 5SM -RA SCT005 BKN025 OVC050
     FM281400 11008KT 1 1/2SM -RA BKN007 OVC015
     FM281900 11012KT 1SM -RA OVC007=

USA.gov is the U.S. government's official web portal to all federal, state and local government web resources and services.